DW6277 Weather Reports


Display with metric or nautical units.
time (UTC)temp
F
wind
direction
speed
MPH
gust
MPH
rain 1hr
in
rain 24hr
in
rain mn
in
humidity
%
barometer
mb
20260507152022 52 257 2.0 6.0 0.00 0.00 0.00 58 1018.5
20260507151046 52 285 2.0 6.0 0.00 0.00 0.00 58 1018.7
20260507150053 52 311 2.0 6.0 0.00 0.00 0.00 58 1018.7
20260507145032 52 265 2.0 6.0 0.00 0.00 0.00 58 1018.8
20260507142905 52 222 1.0 5.0 0.00 0.00 0.00 58 1018.8
20260507141838 52 326 1.0 5.0 0.00 0.00 0.00 57 1018.9
20260507135747 52 308 2.0 10.0 0.00 0.00 0.00 56 1018.7
20260507134729 52 255 2.0 10.0 0.00 0.00 0.00 56 1018.7
20260507131423 53 314 1.0 6.0 0.00 0.00 0.00 54 1018.7
20260507130437 53 243 2.0 7.0 0.00 0.00 0.00 53 1018.6
20260507124335 54 229 3.0 12.0 0.00 0.00 0.00 52 1018.5
20260507123359 54 211 4.0 13.0 0.00 0.00 0.00 52 1018.5
20260507122332 54 252 3.0 16.0 0.00 0.00 0.00 52 1018.6
20260507121330 55 255 4.0 16.0 0.00 0.00 0.00 51 1018.7
20260507115250 55 238 5.0 13.0 0.00 0.00 0.00 51 1018.9
20260507113143 55 212 4.0 14.0 0.00 0.00 0.00 50 1018.9
20260507111029 55 264 4.0 17.0 0.00 0.00 0.00 49 1018.5
20260507110052 55 341 3.0 17.0 0.00 0.00 0.00 49 1018.4
20260507105028 55 255 2.0 10.0 0.00 0.00 0.00 49 1018.4
20260507104046 56 266 3.0 10.0 0.00 0.00 0.00 48 1018.3
20260507103109 56 251 4.0 14.0 0.00 0.00 0.00 47 1018.2
20260507101013 56 257 3.0 11.0 0.00 0.00 0.00 47 1018.3
20260507093733 57 233 3.0 10.0 0.00 0.00 0.00 45 1018.1
20260507091523 57 255 4.0 14.0 0.00 0.00 0.00 44 1017.7
20260507090515 58 215 4.0 14.0 0.00 0.00 0.00 44 1017.5
20260507085535 58 285 4.0 11.0 0.00 0.00 0.00 44 1017.4
20260507082257 58 228 4.0 11.0 0.00 0.00 0.00 43 1017.0
20260507081235 59 269 4.0 13.0 0.00 0.00 0.00 43 1016.8
20260507080212 59 250 4.0 13.0 0.00 0.00 0.00 42 1016.3
20260507075234 59 284 4.0 11.0 0.00 0.00 0.00 42 1016.2
20260507073112 59 219 4.0 12.0 0.00 0.00 0.00 41 1015.9
20260507070950 60 247 5.0 15.0 0.00 0.00 0.00 39 1015.5
20260507064846 61 205 6.0 20.0 0.00 0.00 0.00 38 1015.2
20260507062803 62 238 6.0 17.0 0.00 0.00 0.00 36 1015.0
20260507061823 62 242 7.0 21.0 0.00 0.00 0.00 34 1014.8
20260507060806 63 217 7.0 21.0 0.00 0.00 0.00 32 1014.7
20260507055801 64 242 6.0 19.0 0.00 0.00 0.00 33 1014.5
20260507054734 64 253 7.0 19.0 0.00 0.00 0.00 33 1014.3
20260507053755 64 238 8.0 16.0 0.00 0.00 0.00 32 1013.9
20260507052741 65 266 8.0 20.0 0.00 0.00 0.00 32 1013.9
20260507051733 65 224 8.0 23.0 0.00 0.00 0.00 32 1013.9
20260507050732 66 231 9.0 23.0 0.00 0.00 0.00 31 1013.8
20260507045712 66 224 7.0 19.0 0.00 0.00 0.00 30 1013.5
20260507044640 66 266 8.0 23.0 0.00 0.00 0.00 33 1013.4
20260507043700 66 238 10.0 24.0 0.00 0.00 0.00 33 1013.1
20260507042659 67 229 9.0 26.0 0.00 0.00 0.00 33 1012.9
20260507041701 66 200 8.0 26.0 0.00 0.00 0.00 37 1012.6
20260507040713 66 186 6.0 22.0 0.00 0.00 0.00 42 1012.6
20260507035735 66 231 6.0 22.0 0.00 0.00 0.00 41 1012.4
20260507034732 66 270 6.0 18.0 0.00 0.00 0.00 42 1012.4
20260507033707 66 196 7.0 18.0 0.00 0.00 0.00 50 1012.2
20260507032635 66 243 5.0 15.0 0.00 0.00 0.00 56 1012.2
20260507031649 66 246 3.0 8.0 0.00 0.00 0.00 62 1012.2
20260507030652 66 291 4.0 14.0 0.00 0.00 0.00 62 1012.1
20260507024522 67 292 6.0 14.0 0.00 0.00 0.00 60 1012.3
20260507023516 66 299 5.0 14.0 0.00 0.00 0.00 60 1012.4
20260507022520 67 288 6.0 12.0 0.00 0.00 0.00 59 1012.6
20260507021446 69 318 4.0 11.0 0.00 0.00 0.00 58 1012.8
20260507020441 68 231 6.0 17.0 0.00 0.00 0.00 60 1013.2
20260507015411 67 310 5.0 12.0 0.00 0.00 0.00 61 1013.3
20260507014345 68 334 4.0 10.0 0.00 0.00 0.00 60 1013.5
20260507013352 66 305 5.0 15.0 0.00 0.00 0.00 61 1013.7
20260507012345 66 347 5.0 15.0 0.00 0.00 0.00 60 1013.8
20260507011349 66 255 6.0 16.0 0.00 0.00 0.00 61 1013.9
20260507004109 65 279 5.0 17.0 0.00 0.00 0.00 62 1014.0
20260507003035 65 300 4.0 17.0 0.00 0.00 0.00 63 1014.1
20260507002043 65 298 5.0 12.0 0.00 0.00 0.00 64 1014.3
20260507001024 65 316 3.0 9.0 0.00 0.00 0.00 65 1014.4
20260507000029 64 279 4.0 10.0 0.00 0.00 0.00 67 1014.5
20260506235021 63 352 5.0 12.0 0.00 0.00 0.00 67 1014.7
20260506234017 63 328 5.0 12.0 0.00 0.00 0.00 68 1014.5
20260506232953 63 283 5.0 14.0 0.00 0.00 0.00 68 1014.4
20260506231940 63 303 4.0 14.0 0.00 0.00 0.00 70 1014.5
20260506230917 62 265 4.0 12.0 0.00 0.00 0.00 74 1014.4
20260506225916 61 302 5.0 12.0 0.00 0.00 0.00 76 1014.4
20260506224905 61 336 4.0 10.0 0.00 0.00 0.00 76 1014.3
20260506223857 61 334 3.0 8.0 0.00 0.00 0.00 78 1014.4
20260506222922 60 304 3.0 9.0 0.00 0.00 0.00 79 1014.4
20260506221856 60 290 3.0 9.0 0.00 0.00 0.00 80 1014.5
20260506220829 59 308 2.0 9.0 0.00 0.00 0.00 81 1014.5
20260506215826 59 326 3.0 9.0 0.00 0.00 0.00 82 1014.4
20260506213646 58 302 2.0 6.0 0.00 0.00 0.00 83 1014.1
20260506212708 57 259 3.0 9.0 0.00 0.00 0.00 84 1013.9
20260506211636 57 323 3.0 9.0 0.00 0.00 0.00 85 1013.7
20260506210647 57 319 4.0 10.0 0.00 0.00 0.00 85 1013.8
20260506205636 57 297 3.0 13.0 0.00 0.00 0.00 85 1013.7
20260506203442 56 348 5.0 13.0 0.00 0.00 0.00 86 1012.9
20260506202427 57 308 5.0 11.0 0.00 0.00 0.00 86 1012.8
20260506200317 57 304 5.0 12.0 0.00 0.00 0.00 87 1012.6
20260506194123 57 305 4.0 10.0 0.00 0.00 0.00 88 1012.6
20260506193059 57 331 2.0 6.0 0.00 0.00 0.00 89 1012.5
20260506190942 57 321 2.0 7.0 0.00 0.00 0.00 90 1012.6
20260506185916 58 281 2.0 6.0 0.00 0.00 0.00 90 1012.7
20260506184911 58 306 1.0 7.0 0.00 0.00 0.00 91 1012.8
20260506183905 58 274 2.0 7.0 0.00 0.00 0.00 91 1012.7
20260506182845 58 295 3.0 8.0 0.00 0.00 0.00 92 1012.7
20260506181846 58 314 3.0 9.0 0.00 0.00 0.00 92 1012.6
20260506180822 58 205 4.0 10.0 0.00 0.00 0.00 93 1012.6
20260506175801 59 317 4.0 10.0 0.00 0.00 0.00 94 1012.5
20260506173701 60 302 4.0 10.0 0.00 0.00 0.00 94 1012.5
20260506172641 60 321 3.0 10.0 0.00 0.00 0.00 95 1012.4
20260506171612 60 311 2.0 8.0 0.00 0.00 0.00 95 1012.4
20260506170550 60 319 1.0 5.0 0.00 0.00 0.00 95 1012.6
20260506165519 59 318 2.0 5.0 0.00 0.00 0.00 95 1012.5
20260506164532 59 295 1.0 4.0 0.00 0.00 0.00 94 1012.6
20260506163508 59 313 2.0 5.0 0.00 0.00 0.00 94 1012.7
20260506162519 59 301 2.0 5.0 0.00 0.00 0.00 94 1012.9
20260506161500 60 314 1.0 5.0 0.00 0.00 0.00 94 1012.9
20260506160525 60 292 2.0 5.0 0.00 0.00 0.00 94 1013.0
20260506155534 60 294 2.0 4.0 0.00 0.00 0.00 93 1013.0
20260506154556 61 328 2.0 5.0 0.00 0.00 0.00 93 1013.0
20260506153527 61 335 2.0 5.0 0.00 0.00 0.00 93 1013.0